Zurück zum Katalog

SPACEMOBILE-009

AktivKommunikationVLEO
NORAD 69590·PAYLOAD·🇺🇸 United States

Gestartet Jun 17, 2026 von Cape Canaveral Space Force Station

Loading…

Nächste Überflüge (nächste 24 Stunden)

TLE

AktuellSource: CelesTrak SupGP

Epoche: Sep 14, 2026, 11:03 UTC

1 69590C 26139B   26257.46091435  .00003550  00000+0  19908-3 0  2573
2 69590  52.9925 217.2708 0002979 218.3133 123.5006 15.12866484    11

Verfolge SPACEMOBILE-009 in Echtzeit mit AllMySat

Download on the App Store